[[{"header":{"parameterUnit":"m.s-1","parameterCategory":1,"la1":30.2991,"la2":30.254,"lo1":-89.0895,"lo2":-89.0444,"dy":0.0017,"dx":0.0017,"nx":28,"ny":28,"refTime":"2025-04-11T03:00:00:Z","depth":0,"parameterNumber":2,"parameterNumberName":"U-component_of_WINDS"},"data":[0,0,0,0,0,0,0,0,0,0,0,0,0,0,0,0,0,0,0,0,0,0,0,0,0,0,0,0,0,0,0,0,0,0,0,0,0,0,0,0,0,0,0,0,0,0,0,0,0,0,0,0,0,0,0,0,0,0,1.2839,1.284,0,1.2875,1.2875,1.2876,1.2868,1.2867,1.2866,1.2866,1.2905,1.2906,1.2908,0,0,0,0,0,0,0,0,0,0,0,0,0,1.2769,1.277,1.2839,1.284,1.284,1.2875,1.2875,1.2876,1.2868,1.2867,1.2866,1.2866,1.2904,1.2906,1.2908,0,0,0,0,0,0,0,0,0,0,0,0,0,1.2801,1.2771,1.2839,1.284,1.2841,1.2875,1.2875,1.2876,1.2868,1.2867,1.2866,1.2865,1.2903,1.2906,1.2908,1.2944,0,0,1.2916,1.2917,0,0,0,0,0,0,0,0,1.28,1.2804,1.284,1.284,1.2841,1.2866,1.2865,1.2899,1.2868,1.2858,1.2866,1.2865,1.2893,1.2896,1.2905,1.2946,1.2947,1.2916,1.2918,1.2919,1.2919,0,0,0,0,0,0,0,1.2797,1.2803,1.2853,1.284,1.2841,1.2841,1.2844,1.2871,1.2881,1.2859,1.2858,1.2862,1.2893,1.2903,1.2906,1.2948,1.2916,1.2918,1.292,1.2921,1.3023,1.3024,0,0,0,0,0,0,1.2794,1.2801,1.2852,1.2854,1.2817,1.2843,1.2846,1.2859,1.288,1.2882,1.2863,1.2862,1.2899,1.2903,1.2907,1.2952,1.2919,1.2921,1.2922,1.3022,1.3023,1.3024,0,0,0,0,0,0,1.2793,1.2799,1.2851,1.2827,1.2834,1.2845,1.2859,1.286,1.287,1.2884,1.2886,1.2871,1.2898,1.2904,1.2935,1.2953,1.2922,1.2924,1.302,1.3022,1.3024,1.304,0,0,0,0,0,0,1.2791,1.2798,1.2811,1.2828,1.2835,1.2877,1.286,1.2861,1.2874,1.2872,1.2892,1.2894,1.2898,1.2932,1.2938,1.2956,1.2926,1.3019,1.3021,1.3023,1.3038,1.3043,1.3046,0,0,0,0,0,1.2788,1.2814,1.2811,1.2817,1.2851,1.2878,1.2882,1.2886,1.2875,1.2889,1.2898,1.2893,1.295,1.2935,1.2942,1.2961,1.3018,1.302,1.3023,1.3037,1.3042,1.3046,0,0,0,0,0,0,1.2799,1.2816,1.2813,1.2845,1.286,1.2876,1.2893,1.2891,1.2909,1.2907,1.2912,1.2916,1.2949,1.2958,1.2941,1.2998,1.2983,1.2987,1.2991,1.2996,1.3,1.2997,1.2928,0,0,0,0,0,1.2805,1.2824,1.2839,1.2865,1.2873,1.2882,1.2894,1.2895,1.2911,1.2918,1.2929,1.2946,1.2968,1.2982,1.3003,1.304,1.3045,1.3057,1.3061,1.3064,1.3068,1.3091,1.3096,1.3033,1.3033,1.3033,0,0,1.2817,1.2829,1.2841,1.2868,1.2879,1.2901,1.2887,1.291,1.2927,1.2922,1.2952,1.2962,1.2981,1.3016,1.3032,1.3025,1.3087,1.3068,1.307,1.3072,1.3094,1.31,1.3105,1.3035,1.3035,1.3035,0,0,1.2851,1.2861,1.2885,1.2898,1.2916,1.2923,1.2929,1.2946,1.2952,1.2983,1.2981,1.3001,1.3038,1.3053,1.3065,1.3108,1.3105,1.3115,1.3135,1.3158,1.3163,1.3167,1.3184,1.319,1.3118,1.3118,1.3118,0,1.2864,1.2895,1.2898,1.2922,1.2935,1.2932,1.2958,1.297,1.2995,1.3004,1.2996,1.3044,1.3057,1.3096,1.3107,1.3116,1.3125,1.3112,1.3161,1.3166,1.317,1.3186,1.3193,1.312,1.3119,1.3119,1.3119,0,1.2912,1.2934,1.2952,1.2975,1.2991,1.3015,1.3024,1.3039,1.304,1.3048,1.3081,1.3097,1.3122,1.3131,1.3132,1.3172,1.3167,1.316,1.3145,1.3177,1.3193,1.3199,1.3121,1.3121,1.312,1.312,0,0,1.2952,1.2978,1.2985,1.2997,1.3018,1.3036,1.3062,1.3086,1.31,1.3118,1.3141,1.3174,1.3168,1.3182,1.3185,1.3205,1.324,1.3196,1.3196,1.3205,1.3288,1.3293,1.33,1.3239,1.324,1.3241,1.3287,0,1.2988,1.3033,1.3037,1.3078,1.31,1.3098,1.3121,1.3138,1.3147,1.3168,1.3178,1.3202,1.3192,1.3201,1.322,1.3232,1.3257,1.3229,1.3262,1.3263,1.3258,1.3308,1.3314,1.3356,1.3293,1.3294,1.3294,0,1.3036,1.3056,1.3098,1.3119,1.3128,1.3148,1.3173,1.3192,1.3212,1.3218,1.3235,1.3236,1.3266,1.3249,1.3291,1.3271,1.3286,1.3294,1.3296,1.3299,1.3281,1.3314,1.3369,1.3376,1.3304,1.3303,1.3302,0,1.3063,1.31,1.313,1.314,1.3165,1.318,1.3191,1.321,1.3225,1.3247,1.3257,1.3282,1.3296,1.3316,1.3326,1.3312,1.3368,1.3351,1.3374,1.3374,1.3386,1.3385,1.3445,1.3394,1.3394,1.3394,1.3394,0,1.3103,1.313,1.3143,1.3162,1.3192,1.3199,1.323,1.324,1.3258,1.3281,1.3281,1.3303,1.3313,1.3337,1.3345,1.338,1.3386,1.3392,1.3394,1.3393,1.3392,1.3402,1.34,1.3395,1.3395,1.3395,1.3394,0,1.3137,1.3147,1.3181,1.3202,1.3208,1.323,1.3248,1.3268,1.3278,1.3307,1.3314,1.333,1.3358,1.3369,1.3404,1.3409,1.345,1.3449,1.3443,1.3444,1.3467,1.3465,1.3536,1.3546,1.3487,1.3488,1.3488,0,1.3163,1.3183,1.3207,1.3222,1.3233,1.3257,1.3273,1.3282,1.3298,1.3325,1.3342,1.337,1.3393,1.3439,1.3455,1.3482,1.3483,1.3506,1.3487,1.3486,1.3485,1.3484,1.3487,1.3509,1.351,1.351,1.3511,0,1.3207,1.3212,1.3234,1.3259,1.3277,1.3297,1.3317,1.333,1.3342,1.3361,1.339,1.3408,1.3445,1.3474,1.3503,1.3516,1.3517,1.3517,1.3524,1.3523,1.3519,1.3523,1.3453,1.3515,1.3515,1.3514,1.3514,1.3514,1.3239,1.3258,1.3278,1.3303,1.3319,1.3338,1.3358,1.3371,1.3395,1.3425,1.3429,1.3461,1.3484,1.3523,1.3538,1.3564,1.3558,1.3568,1.3571,1.3573,1.3576,1.3514,1.3569,1.3569,1.3569,1.3569,1.3569,0,1.3284,1.3298,1.3321,1.3349,1.337,1.3368,1.3391,1.3409,1.3436,1.3457,1.348,1.3516,1.3545,1.3563,1.3593,1.3611,1.3612,1.3619,1.3618,1.3622,1.3578,1.357,1.3617,1.3617,1.3617,1.3617,1.3617,1.3617,1.3311,1.3343,1.3351,1.3393,1.3406,1.3437,1.345,1.3469,1.3486,1.3525,1.3549,1.3561,1.3582,1.3614,1.3641,1.3646,1.3658,1.3665,1.367,1.3629,1.3624,1.3619,1.3611,1.3667,1.3667,1.3711,1.3711,1.3712]},{"header":{"parameterUnit":"m.s-1","parameterCategory":1,"la1":30.2991,"la2":30.254,"lo1":-89.0895,"lo2":-89.0444,"dy":0.0017,"dx":0.0017,"nx":28,"ny":28,"refTime":"2025-04-11T03:00:00:Z","depth":0,"parameterNumber":3,"parameterNumberName":"V-component_of_WINDS"},"data":[0,0,0,0,0,0,0,0,0,0,0,0,0,0,0,0,0,0,0,0,0,0,0,0,0,0,0,0,0,0,0,0,0,0,0,0,0,0,0,0,0,0,0,0,0,0,0,0,0,0,0,0,0,0,0,0,0,0,-2.9229,-2.923,0,-2.9262,-2.9262,-2.9263,-2.9287,-2.9288,-2.9288,-2.9288,-2.9319,-2.9319,-2.932,0,0,0,0,0,0,0,0,0,0,0,0,0,-2.9184,-2.9185,-2.9229,-2.923,-2.923,-2.9262,-2.9262,-2.9263,-2.9287,-2.9288,-2.9288,-2.9288,-2.9319,-2.9319,-2.932,0,0,0,0,0,0,0,0,0,0,0,0,0,-2.9209,-2.9185,-2.9229,-2.9246,-2.9248,-2.9262,-2.9262,-2.9263,-2.9287,-2.9288,-2.9288,-2.9288,-2.9318,-2.9319,-2.932,-2.9319,0,0,-2.9323,-2.9323,0,0,0,0,0,0,0,0,-2.9207,-2.9211,-2.9243,-2.9245,-2.9247,-2.9271,-2.9258,-2.9281,-2.9287,-2.9272,-2.9288,-2.9288,-2.9302,-2.9305,-2.931,-2.932,-2.9322,-2.9323,-2.9324,-2.9324,-2.9324,0,0,0,0,0,0,0,-2.9206,-2.9209,-2.9242,-2.9244,-2.9246,-2.9251,-2.9255,-2.9262,-2.9285,-2.9274,-2.9275,-2.9279,-2.9303,-2.9309,-2.9311,-2.9322,-2.9323,-2.9324,-2.9324,-2.9325,-2.933,-2.933,0,0,0,0,0,0,-2.9202,-2.9208,-2.9241,-2.9243,-2.9228,-2.9251,-2.9256,-2.9263,-2.9285,-2.9289,-2.9279,-2.928,-2.9307,-2.931,-2.9312,-2.931,-2.9324,-2.9325,-2.9325,-2.9331,-2.933,-2.933,0,0,0,0,0,0,-2.9201,-2.9205,-2.924,-2.9226,-2.9231,-2.9252,-2.926,-2.9263,-2.9269,-2.9289,-2.9293,-2.928,-2.9308,-2.9311,-2.9317,-2.9312,-2.9325,-2.9326,-2.9331,-2.9331,-2.933,-2.9308,0,0,0,0,0,0,-2.9199,-2.9204,-2.9205,-2.9226,-2.9231,-2.9245,-2.9259,-2.9264,-2.9271,-2.9273,-2.9291,-2.9295,-2.9308,-2.9315,-2.9317,-2.9313,-2.9327,-2.9332,-2.9331,-2.933,-2.9309,-2.9307,-2.9305,0,0,0,0,0,-2.9198,-2.9197,-2.9205,-2.9209,-2.9233,-2.9245,-2.9248,-2.9264,-2.927,-2.927,-2.9283,-2.9294,-2.9312,-2.9315,-2.9318,-2.9314,-2.9332,-2.9331,-2.933,-2.931,-2.9307,-2.9305,0,0,0,0,0,0,-2.9175,-2.92,-2.9209,-2.9216,-2.9228,-2.9249,-2.925,-2.926,-2.927,-2.9272,-2.929,-2.9294,-2.9298,-2.9307,-2.931,-2.9313,-2.9323,-2.9323,-2.9307,-2.9304,-2.9302,-2.9299,-2.9327,0,0,0,0,0,-2.9171,-2.9179,-2.9201,-2.9204,-2.921,-2.9228,-2.9234,-2.9245,-2.9258,-2.9264,-2.9277,-2.9288,-2.9296,-2.9301,-2.9309,-2.9311,-2.9314,-2.9309,-2.9307,-2.9305,-2.9304,-2.9303,-2.9301,-2.9327,-2.9327,-2.9327,0,0,-2.9162,-2.9177,-2.9181,-2.92,-2.9211,-2.9217,-2.9233,-2.924,-2.9245,-2.9264,-2.9271,-2.928,-2.9294,-2.9297,-2.9299,-2.9305,-2.9297,-2.9304,-2.9302,-2.9302,-2.9302,-2.93,-2.9297,-2.9326,-2.9326,-2.9326,0,0,-2.915,-2.9163,-2.9166,-2.9176,-2.9192,-2.9204,-2.9205,-2.9224,-2.9231,-2.9238,-2.9252,-2.9258,-2.9272,-2.928,-2.9286,-2.9275,-2.9285,-2.9277,-2.9265,-2.9264,-2.9262,-2.926,-2.9254,-2.9252,-2.9276,-2.9276,-2.9276,0,-2.9137,-2.9149,-2.9166,-2.9172,-2.9179,-2.9197,-2.92,-2.9209,-2.9226,-2.923,-2.9236,-2.9253,-2.9264,-2.9268,-2.9265,-2.927,-2.927,-2.9275,-2.9261,-2.9259,-2.9258,-2.9252,-2.925,-2.9275,-2.9275,-2.9275,-2.9275,0,-2.9131,-2.9139,-2.914,-2.9156,-2.9163,-2.9167,-2.9184,-2.9189,-2.9199,-2.921,-2.9215,-2.9228,-2.9239,-2.9241,-2.9251,-2.9246,-2.9248,-2.9257,-2.9268,-2.9254,-2.9249,-2.9247,-2.9273,-2.9274,-2.9274,-2.9274,0,0,-2.9107,-2.9132,-2.9131,-2.9138,-2.9156,-2.9162,-2.9166,-2.9177,-2.9179,-2.9191,-2.9193,-2.9204,-2.9211,-2.9218,-2.9229,-2.9228,-2.9216,-2.9237,-2.9238,-2.9231,-2.9209,-2.9201,-2.9199,-2.9223,-2.9223,-2.9223,-2.9207,0,-2.9096,-2.9105,-2.912,-2.9124,-2.913,-2.9146,-2.9149,-2.916,-2.917,-2.9175,-2.9186,-2.9192,-2.9203,-2.9207,-2.9207,-2.9218,-2.9212,-2.9219,-2.9224,-2.9224,-2.9219,-2.9197,-2.9189,-2.9174,-2.9206,-2.9205,-2.9205,0,-2.9086,-2.9095,-2.9099,-2.9115,-2.9118,-2.9121,-2.9131,-2.9136,-2.9148,-2.9155,-2.9161,-2.9173,-2.9176,-2.9186,-2.919,-2.9194,-2.9197,-2.9202,-2.9202,-2.9202,-2.9213,-2.9195,-2.917,-2.9167,-2.9203,-2.9203,-2.9203,0,-2.9065,-2.908,-2.9083,-2.9089,-2.9108,-2.9109,-2.9116,-2.9128,-2.9133,-2.9141,-2.9144,-2.9152,-2.9156,-2.9162,-2.9175,-2.9181,-2.9176,-2.9188,-2.918,-2.918,-2.9178,-2.9178,-2.9152,-2.9182,-2.9182,-2.9182,-2.9182,0,-2.9052,-2.9053,-2.9074,-2.9077,-2.9078,-2.9094,-2.9095,-2.9104,-2.9113,-2.9116,-2.9131,-2.9133,-2.9151,-2.9154,-2.9164,-2.9164,-2.9167,-2.9171,-2.9173,-2.9169,-2.9168,-2.917,-2.9171,-2.9181,-2.9181,-2.9181,-2.9182,0,-2.903,-2.9044,-2.9049,-2.9066,-2.907,-2.907,-2.9083,-2.9085,-2.9095,-2.9099,-2.91,-2.9116,-2.9121,-2.9134,-2.9142,-2.9149,-2.9146,-2.9151,-2.9142,-2.9143,-2.9134,-2.9134,-2.9108,-2.9105,-2.9138,-2.9138,-2.9137,0,-2.902,-2.9021,-2.9038,-2.9041,-2.9048,-2.9053,-2.9057,-2.9073,-2.9077,-2.9088,-2.9088,-2.9094,-2.91,-2.9107,-2.9118,-2.9124,-2.9128,-2.9119,-2.9129,-2.9124,-2.9126,-2.9125,-2.9125,-2.9116,-2.9116,-2.9115,-2.9115,0,-2.9,-2.9007,-2.9013,-2.9021,-2.9026,-2.9033,-2.9041,-2.9043,-2.9059,-2.9063,-2.9068,-2.9072,-2.908,-2.9085,-2.9092,-2.9099,-2.9109,-2.9111,-2.911,-2.9105,-2.9099,-2.91,-2.9134,-2.9112,-2.9112,-2.9112,-2.9113,-2.9113,-2.8983,-2.8984,-2.8995,-2.9001,-2.9008,-2.9015,-2.9017,-2.9026,-2.9031,-2.9039,-2.9047,-2.9051,-2.906,-2.907,-2.9076,-2.9078,-2.9084,-2.9082,-2.9081,-2.908,-2.9077,-2.9099,-2.908,-2.908,-2.908,-2.908,-2.908,0,-2.8963,-2.897,-2.8976,-2.8986,-2.8989,-2.8999,-2.9007,-2.901,-2.9013,-2.9021,-2.9025,-2.903,-2.9034,-2.9045,-2.905,-2.9049,-2.9054,-2.905,-2.905,-2.905,-2.9073,-2.9073,-2.9046,-2.9046,-2.9046,-2.9046,-2.9046,-2.9046,-2.8953,-2.8954,-2.8962,-2.8966,-2.8973,-2.8977,-2.8981,-2.8986,-2.8992,-2.8996,-2.9,-2.9007,-2.9015,-2.9021,-2.9024,-2.9027,-2.9028,-2.9022,-2.9026,-2.9046,-2.9049,-2.9052,-2.9053,-2.9022,-2.9022,-2.9004,-2.9003,-2.9003]}]]